Terminal Aerodrome Forecast
Issued by NWS Sterling, VA

Current Version | Previous Version | Text Only | Print | Product List | Glossary Off
Versions: 1 2 3 4 5 6 7 8 9 10 11 12 13 14 15 16 17 18 19 20 21 22

000
FTUS41 KLWX 051023 AAD
TAFMRB
TAF AMD
KMRB 051023Z 0510/0606 02005KT 2SM -SN OVC015
     FM051300 34008KT 1/2SM SN OVC006
     FM051800 34010G15KT 2SM -SN OVC010
     FM052200 34009KT P6SM OVC015
     FM060300 32008KT P6SM SCT050=

USA.gov is the U.S. government's official web portal to all federal, state and local government web resources and services.